Location: ??????
(38.0131°N, 23.7723°E)
Time: 04:59:45
(UTC+00:00)

SL-16 R/B - Pass Details

Date: 17 October 2021
Orbit: 842 x 846 km, 71.0° (Epoch: 28 November)

Event Time Altitude Azimuth Distance (km) Brightness Sun altitude
Rises 16:05:59 0° 145° (SE) 3,385 5.1 -5.0°
Reaches altitude 10° 16:10:37 10° 110° (ESE) 2,458 4.1 -5.9°
Maximum altitude 16:11:58 11° 96° (E) 2,399 3.9 -6.2°
Drops below altitude 10° 16:13:19 10° 82° (E) 2,463 3.9 -6.4°
Enters shadow 16:15:29 - 63° (ENE) 2,793 4.3 -6.9°
